Regional Weather Roundup
Issued by NWS

Home | Current Version | Previous Version | Graphics & Text | Print | Product List | Glossary On
Versions: 1 2 3 4 5 6 7 8 9 10 11 12 13 14 15 16 17 18 19 20 21 22 23 24 25 26 27 28 29 30 31 32 33 34 35 36 37 38 39 40 41 42 43 44 45 46 47 48 49 50
249
ASUS44 KLIX 020311
RWRLA
LOUISIANA WEATHER ROUNDUP
NATIONAL WEATHER SERVICE NEW ORLEANS LA
1000 PM CDT WED APR 01 2015

NOTE: "FAIR" INDICATES FEW OR NO CLOUDS BELOW 12,000 FEET WITH NO
      SIGNIFICANT WEATHER AND/OR OBSTRUCTIONS TO VISIBILITY.
      SKY/WX - SKY CONDITION AND SIGNIFICANT WEATHER.
      TMP - AIR TEMPERATURE.    DP   - DEWPOINT TEMPERATURE.
      RH  - RELATIVE HUMIDITY.  PRES - PRESSURE.
      HX  - HEAT INDEX.         WCI  - WIND CHILL INDEX.

*  THESE STATIONS ARE NOT NWS OR FAA STATIONS AND ARE NOT UNDER
   NWS QUALITY CONTROL.

LAZ040-048-061>063-065-066-069-020400-
SOUTHEAST LOUISIANA

CITY           SKY/WX    TMP DP  RH WIND       PRES   REMARKS
N.O. AUDUBON     N/A     72  70  93 MISG        N/A
N.O. INTL ARPT CLOUDY    72  66  81 SE8       30.05R
N.O. LAKEFRONT CLOUDY    75  65  70 S9        30.06R
SLIDELL        CLOUDY    71  68  90 S7        30.05S
BATON ROUGE    CLOUDY    72  64  76 S10       30.03S
BOOTHVILLE     CLOUDY    73  70  90 SE9       30.08R
BELLE CHASSE   CLOUDY    72  66  81 S7        30.05R
BOGALUSA*        N/A     73  65  76 SE6       30.05F
GALLIANO*      MOCLDY    68  66  94 CALM      30.06F
NEW ROADS*     FAIR      72  64  75 S5        30.03R
GONZALES*      FAIR      71  66  85 S3        30.04S
HAMMOND*       CLOUDY    72  63  73 S6        30.06R
HOUMA*         MOCLDY    72  68  89 SE6       30.04F
PORT FOURCHON* CLEAR     75  70  83 SE5       30.09S

$$

LAZ041-044-053-054-020400-
SOUTHWEST LOUISIANA

CITY           SKY/WX    TMP DP  RH WIND       PRES   REMARKS
LAKE CHARLES   CLOUDY    71  67  87 S8        30.01R
LAFAYETTE      MOCLDY    72  66  81 S5        30.03R
PATTERSON      PTCLDY    70  64  83 SE6       30.05S
SALT POINT       N/A     69  67  93 SE5       30.03R
NEW IBERIA     PTCLDY    71  66  84 SE7       30.04R
CHENAULT AIRPK CLEAR     70  66  88 S8        30.02R

$$

LAZ027-028-020400-
CENTRAL LOUISIANA

CITY           SKY/WX    TMP DP  RH WIND       PRES   REMARKS
FORT POLK      CLOUDY    69  66  89 S8        29.99R
ALEXANDRIA INT CLOUDY    72  63  73 S10       29.98R
ALEXANDRIA     CLOUDY    72  63  73 S6        30.00R

$$

LAZ001-002-020400-
NORTHWEST LOUISIANA

CITY           SKY/WX    TMP DP  RH WIND       PRES   REMARKS
SHREVEPORT     MOCLDY    71  64  78 S10       29.93R
BARKSDALE AFB  CLEAR     70  64  83 S12       29.93R
DTN SHREVEPORT PTCLDY    70  63  78 S13       29.93R

$$

LAZ014-016-020400-
NORTHEAST LOUISIANA

CITY           SKY/WX    TMP DP  RH WIND       PRES   REMARKS
MONROE         MOCLDY    69  63  81 SW6       29.97R
TALLULAH       CLOUDY    72  57  59 S5        29.98S

$$




USA.gov is the U.S. government's official web portal to all federal, state and local government web resources and services.